Location: ????????
(55.7667°N, 37.4833°E)
Time: 07:50:37
(UTC+00:00)

Cosmos 2056 Rocket - Pass Details

Date: 19 May 2025
Orbit: 739 x 796 km, 74.0° (Epoch: 23 June)

Event Time Altitude Azimuth Distance (km) Brightness Sun altitude
Rises 20:58:36 0° 331° (NNW) 3,295 8.2 -14.0°
Reaches altitude 10° 21:01:02 10° 334° (NNW) 2,355 7.2 -14.1°
Maximum altitude 21:06:23 70° 59° (ENE) 829 3.7 -14.1°
Enters shadow 21:10:42 15° 141° (SE) 1,961 5.1 -14.2°
